Location: Unspecified
(0.0000°N, 0.0000°E)
Time: 21:27:29
(UTC+00:00)

Tiros 1 - Pass Details

Date: 21 October 2021
Orbit: 630 x 664 km, 48.4° (Epoch: 04 December)

Event Time Altitude Azimuth Distance (km) Brightness Sun altitude
Rises 09:14:17 0° 251° (WSW) 2,988 10.3 51.1°
Reaches altitude 10° 09:17:31 10° 274° (W) 2,072 9.5 51.9°
Maximum altitude 09:20:19 15° 310° (NW) 1,733 9.2 52.5°
Drops below altitude 10° 09:23:07 10° 346° (NNW) 2,063 9.7 53.2°
Sets 09:26:21 0° 9° (N) 2,966 10.5 54.0°
